Weather Roundup
Issued by NWS Corpus Christi, TX

Home | Current Version | Previous Version | Text Only | Print | Product List | Glossary On
Versions: 1 2 3 4 5 6 7 8 9 10 11 12 13 14 15 16 17 18 19 20 21 22 23 24 25 26 27 28 29 30 31 32 33 34 35 36 37 38 39 40 41 42 43 44 45 46 47 48 49 50
000
ASUS44 KCRP 191510
HRRCRP

SOUTH TEXAS REGIONAL WEATHER ROUNDUP
NATIONAL WEATHER SERVICE CORPUS CHRISTI TX
1000 AM CDT THU OCT 19 2017


TXZ229>244-191600-
...CORPUS CHRISTI AREA OBSERVATIONS...

CITY           SKY/WX    TMP DP  RH WIND       PRES   REMARKS
CORPUS CHRISTI PTSUNNY   77  69  76 N6        30.08R
NAS CORPUS CHR NOT AVBL
ROCKPORT       SUNNY     79  68  69 NE9       30.08R
KINGSVILLE ARP FAIR      76  70  81 N3        30.09R
ALICE          MOSUNNY   75  66  73 NE8       30.09R
$$

...VICTORIA AREA OBSERVATIONS...

CITY           SKY/WX    TMP DP  RH WIND       PRES   REMARKS
PORT LAVACA    NOT AVBL
VICTORIA       SUNNY     75  67  76 E7        30.11S
BEEVILLE       FAIR      73  69  87 NE5       30.11R
PLEASANTON     PTSUNNY   68  63  84 CALM      30.13R
SAN ANTONIO    PTSUNNY   69  61  75 CALM      30.14R
$$

...LAREDO AREA OBSERVATIONS...

CITY           SKY/WX    TMP DP  RH WIND       PRES   REMARKS
LAREDO         SUNNY     71  64  78 CALM      30.11R
COTULLA        SUNNY     71  63  75 NE5       30.11R
DEL RIO        MOSUNNY   63  61  93 E10       30.10R
MCALLEN        SUNNY     76  66  71 N3        30.08R
HEBBRONVILLE   MOSUNNY   70  64  81 CALM      30.11R
$$

...OTHER TEXAS OBSERVATIONS...

CITY           SKY/WX    TMP DP  RH WIND       PRES   REMARKS
BROWNSVILLE    SUNNY     79  71  76 N3        30.07R
HOUSTON        MOSUNNY   74  66  76 E7        30.15R
COL. STATION   PTSUNNY   71  62  73 E6        30.16R
AUSTIN         PTSUNNY   66  62  87 NE3       30.15R
WACO           MOSUNNY   68  59  73 S6        30.18R
FORT WORTH     PTSUNNY   69  59  70 S5        30.17R
WICHITA FALLS  PTSUNNY   62  49  62 S9        30.15R
LUBBOCK        PTSUNNY   63  47  55 S12       30.12R
EL PASO        PTSUNNY   67  54  63 CALM      30.09R
$$

...MARINE OBSERVATIONS...

STATION/POSITION TIME  SKY/WX   TEMP    WIND        PRES    VSBY  WAVE   SWELL
                                AIR SEA DIR/SP/G                  HT/PER HT/PER
                 (UTC)          (F)     (DEG/KT/KT) (MB)    (MI)  (FT/S) (FT/S)
PORT ARANSAS     NOT AVBL
BUOY 90 E PORT A 1350            80 82   70/ 14/ 16 1017.8          3/ 6   2/ 8
BUOY 200 E PT IS 1350            80 83   70/ 10/ 14 1016.9          6/ 8   5/ 8
BUOY 15 E GALVES 1350            78 80   90/ 14/ 17 1019.8          3/ 5   2/ 8
$$




USA.gov is the U.S. government's official web portal to all federal, state and local government web resources and services.